Total_Precipitation_Accumulation
0.08 0.06 0.04 0.01 0.01 0.01 0.02 0.02 0.02 0.01 0.01 0.00 0.00 0.00 0.00 0.00 0.00 0.00 0.00 0.00 0.00 0.00 0.00 0.00 0.00 0.01 0.00 0.01 0.00 0.00 0.00 0.00 0.00 0.00 0.00 0.00 0.00 0.00 0.00 0.00 0.00 0.00 0.00 0.00 0.00 0.00 0.00
0.05 0.05 0.04 0.04 0.03 0.01 0.01 0.02 0.01 0.01 0.01 0.01 0.00 0.00 0.00 0.00 0.00 0.00 0.00 0.00 0.00 0.00 0.00 0.00 0.00 0.01 0.01 0.00 0.00 0.00 0.00 0.00 0.00 0.00 0.00 0.00 0.00 0.00 0.00 0.00 0.01 0.00 0.00 0.00 0.00 0.00 0.00
0.03 0.03 0.04 0.07 0.07 0.04 0.01 0.01 0.02 0.02 0.02 0.01 0.01 0.00 0.00 0.00 0.00 0.00 0.00 0.00 0.00 0.00 0.00 0.00 0.01 0.00 0.00 0.00 0.00 0.00 0.00 0.00 0.00 0.00 0.00 0.01 0.01 0.03 0.02 0.00 0.00 0.01 0.04 0.01 0.00 0.00 0.00
0.03 0.04 0.05 0.06 0.07 0.07 0.03 0.02 0.01 0.01 0.03 0.02 0.01 0.01 0.00 0.00 0.00 0.00 0.00 0.00 0.00 0.01 0.00 0.01 0.02 0.01 0.01 0.00 0.00 0.00 0.00 0.00 0.00 0.00 0.00 0.00 0.01 0.02 0.01 0.01 0.00 0.01 0.03 0.01 0.00 0.00 0.00
0.04 0.04 0.05 0.05 0.05 0.04 0.04 0.03 0.02 0.02 0.02 0.02 0.01 0.01 0.01 0.00 0.00 0.00 0.00 0.00 0.00 0.00 0.00 0.01 0.01 0.01 0.00 0.00 0.00 0.00 0.00 0.00 0.00 0.00 0.00 0.00 0.00 0.00 0.01 0.01 0.01 0.01 0.01 0.01 0.00 0.00 0.00
0.02 0.03 0.03 0.03 0.03 0.02 0.03 0.05 0.05 0.04 0.04 0.04 0.02 0.01 0.00 0.00 0.00 0.01 0.01 0.00 0.00 0.01 0.00 0.00 0.02 0.02 0.00 0.00 0.00 0.00 0.00 0.00 0.00 0.00 0.00 0.00 0.00 0.00 0.00 0.02 0.01 0.01 0.01 0.00 0.00 0.00 0.01
0.00 0.02 0.04 0.04 0.05 0.07 0.08 0.08 0.08 0.06 0.05 0.07 0.06 0.04 0.01 0.00 0.00 0.02 0.01 0.00 0.00 0.00 0.01 0.00 0.00 0.00 0.00 0.00 0.00 0.00 0.00 0.00 0.00 0.00 0.00 0.00 0.01 0.00 0.00 0.00 0.00 0.00 0.00 0.01 0.00 0.01 0.04
0.00 0.01 0.03 0.06 0.10 0.11 0.09 0.08 0.08 0.06 0.04 0.05 0.06 0.05 0.02 0.00 0.01 0.02 0.01 0.00 0.00 0.00 0.00 0.00 0.00 0.00 0.00 0.00 0.00 0.00 0.00 0.00 0.00 0.00 0.00 0.00 0.00 0.00 0.00 0.00 0.00 0.00 0.00 0.00 0.01 0.01 0.07
0.00 0.01 0.04 0.12 0.12 0.11 0.11 0.12 0.13 0.11 0.07 0.07 0.06 0.05 0.03 0.01 0.01 0.02 0.00 0.00 0.00 0.00 0.01 0.01 0.00 0.00 0.00 0.00 0.00 0.00 0.00 0.00 0.00 0.00 0.00 0.00 0.00 0.00 0.00 0.00 0.00 0.00 0.00 0.00 0.01 0.04 0.06
0.00 0.01 0.01 0.03 0.11 0.15 0.17 0.20 0.24 0.25 0.15 0.12 0.12 0.09 0.03 0.01 0.01 0.00 0.01 0.00 0.00 0.00 0.01 0.00 0.00 0.00 0.00 0.01 0.02 0.00 0.00 0.00 0.01 0.00 0.01 0.01 0.00 0.00 0.00 0.00 0.00 0.00 0.00 0.00 0.01 0.06 0.03
0.01 0.01 0.01 0.02 0.03 0.07 0.12 0.17 0.21 0.31 0.32 0.17 0.11 0.09 0.02 0.00 0.00 0.00 0.00 0.00 0.00 0.00 0.01 0.00 0.00 0.00 0.00 0.01 0.01 0.00 0.00 0.04 0.02 0.00 0.03 0.03 0.00 0.00 0.00 0.00 0.00 0.00 0.00 0.00 0.04 0.28 0.23
0.01 0.02 0.04 0.05 0.06 0.10 0.09 0.09 0.15 0.25 0.35 0.31 0.17 0.06 0.02 0.00 0.00 0.00 0.00 0.00 0.00 0.00 0.01 0.00 0.00 0.00 0.01 0.01 0.01 0.01 0.01 0.06 0.07 0.16 0.14 0.02 0.00 0.01 0.00 0.00 0.00 0.00 0.01 0.02 0.14 0.23 0.49
0.01 0.03 0.06 0.07 0.09 0.10 0.18 0.19 0.20 0.21 0.29 0.36 0.31 0.08 0.01 0.00 0.00 0.00 0.00 0.00 0.01 0.01 0.00 0.00 0.00 0.00 0.00 0.01 0.02 0.04 0.09 0.12 0.24 0.23 0.23 0.11 0.01 0.02 0.04 0.02 0.01 0.02 0.06 0.10 0.19 0.47 0.32
0.02 0.03 0.06 0.08 0.14 0.22 0.29 0.27 0.30 0.32 0.32 0.38 0.48 0.16 0.03 0.00 0.00 0.00 0.00 0.01 0.01 0.00 0.00 0.00 0.00 0.01 0.01 0.01 0.04 0.03 0.18 0.11 0.08 0.11 0.12 0.07 0.03 0.01 0.01 0.01 0.03 0.02 0.03 0.13 0.11 0.16 0.15
0.02 0.04 0.09 0.11 0.21 0.23 0.27 0.28 0.23 0.33 0.44 0.40 0.74 0.27 0.09 0.00 0.00 0.00 0.00 0.01 0.00 0.00 0.00 0.00 0.03 0.08 0.03 0.02 0.04 0.04 0.08 0.09 0.01 0.02 0.07 0.07 0.06 0.03 0.00 0.00 0.06 0.07 0.06 0.10 0.31 0.07 0.07
0.02 0.04 0.08 0.07 0.10 0.25 0.32 0.31 0.33 0.40 0.54 0.61 1.01 0.60 0.07 0.03 0.02 0.01 0.02 0.01 0.00 0.01 0.01 0.03 0.07 0.05 0.00 0.00 0.02 0.02 0.02 0.00 0.00 0.00 0.00 0.02 0.15 0.10 0.07 0.09 0.08 0.14 0.05 0.15 0.50 0.38 0.06
0.02 0.04 0.05 0.09 0.17 0.36 0.47 0.44 0.40 0.59 0.63 1.22 0.52 0.68 0.13 0.12 0.30 0.17 0.04 0.00 0.00 0.00 0.02 0.05 0.05 0.03 0.00 0.00 0.00 0.00 0.00 0.00 0.00 0.00 0.00 0.00 0.05 0.11 0.28 0.12 0.06 0.21 0.23 0.16 0.30 0.31 0.23
0.01 0.02 0.05 0.12 0.24 0.41 0.62 0.51 0.50 0.74 0.90 1.56 0.99 0.30 0.13 0.17 0.45 0.20 0.02 0.00 0.00 0.01 0.03 0.10 0.10 0.04 0.00 0.00 0.00 0.00 0.00 0.00 0.00 0.00 0.00 0.01 0.10 0.16 0.15 0.06 0.05 0.07 0.17 0.12 0.27 0.39 0.20
0.00 0.01 0.04 0.10 0.27 0.40 0.57 0.46 0.32 0.66 0.96 1.08 0.96 0.28 0.36 0.09 0.10 0.03 0.00 0.00 0.01 0.02 0.05 0.11 0.07 0.03 0.01 0.00 0.00 0.00 0.00 0.00 0.00 0.00 0.00 0.04 0.19 0.24 0.20 0.20 0.23 0.20 0.20 0.29 0.23 0.36 0.34
0.00 0.01 0.01 0.05 0.21 0.32 0.41 0.32 0.31 0.74 0.76 0.80 0.69 0.33 0.57 0.55 0.05 0.00 0.00 0.01 0.01 0.02 0.04 0.09 0.08 0.03 0.01 0.01 0.00 0.00 0.00 0.00 0.00 0.00 0.01 0.15 0.27 0.48 0.45 0.27 0.31 0.15 0.16 0.36 0.44 0.37 0.21
0.01 0.01 0.01 0.03 0.10 0.19 0.25 0.29 0.62 1.05 1.03 0.82 0.44 0.17 0.11 0.19 0.06 0.01 0.02 0.02 0.02 0.06 0.07 0.09 0.06 0.02 0.01 0.00 0.00 0.00 0.00 0.00 0.00 0.00 0.02 0.20 0.59 0.80 0.30 0.13 0.14 0.15 0.10 0.26 0.51 0.31 0.15
0.02 0.01 0.01 0.02 0.05 0.11 0.17 0.22 0.53 0.99 1.10 0.65 0.25 0.09 0.02 0.01 0.00 0.00 0.01 0.02 0.02 0.08 0.10 0.06 0.04 0.01 0.01 0.00 0.00 0.00 0.00 0.00 0.00 0.00 0.02 0.11 0.42 0.45 0.17 0.02 0.04 0.03 0.07 0.14 0.39 0.31 0.18
0.02 0.01 0.01 0.01 0.04 0.08 0.09 0.25 0.49 0.94 1.16 0.69 0.13 0.04 0.02 0.02 0.01 0.01 0.00 0.00 0.00 0.06 0.05 0.03 0.03 0.02 0.02 0.01 0.01 0.00 0.00 0.00 0.00 0.00 0.00 0.02 0.15 0.28 0.26 0.11 0.08 0.08 0.03 0.12 0.32 0.25 0.13
0.03 0.01 0.01 0.01 0.02 0.05 0.07 0.29 0.55 0.90 0.99 0.60 0.10 0.06 0.05 0.04 0.02 0.01 0.00 0.01 0.01 0.05 0.06 0.05 0.02 0.03 0.02 0.02 0.04 0.04 0.01 0.00 0.00 0.00 0.00 0.00 0.01 0.06 0.14 0.11 0.06 0.02 0.00 0.02 0.03 0.05 0.03
0.03 0.01 0.01 0.00 0.02 0.04 0.06 0.30 0.44 0.49 0.44 0.36 0.12 0.03 0.07 0.04 0.02 0.03 0.02 0.00 0.01 0.03 0.08 0.10 0.05 0.01 0.03 0.04 0.09 0.12 0.13 0.03 0.00 0.00 0.00 0.00 0.00 0.01 0.00 0.00 0.00 0.00 0.00 0.00 0.00 0.00 0.00
0.02 0.02 0.01 0.00 0.01 0.02 0.05 0.19 0.31 0.37 0.42 0.28 0.08 0.04 0.06 0.05 0.03 0.02 0.01 0.00 0.02 0.07 0.11 0.11 0.08 0.04 0.07 0.12 0.16 0.09 0.06 0.02 0.00 0.00 0.00 0.00 0.00 0.01 0.00 0.00 0.00 0.00 0.00 0.00 0.00 0.00 0.00
0.02 0.03 0.00 0.00 0.01 0.02 0.02 0.09 0.29 0.23 0.28 0.24 0.05 0.02 0.05 0.04 0.00 0.01 0.01 0.00 0.03 0.12 0.17 0.19 0.13 0.12 0.08 0.17 0.12 0.06 0.00 0.00 0.00 0.00 0.00 0.00 0.00 0.00 0.00 0.00 0.00 0.00 0.00 0.00 0.00 0.00 0.00
0.04 0.03 0.00 0.00 0.01 0.01 0.02 0.08 0.26 0.17 0.20 0.23 0.05 0.00 0.01 0.01 0.00 0.01 0.00 0.00 0.06 0.12 0.20 0.22 0.23 0.19 0.08 0.13 0.11 0.05 0.00 0.00 0.00 0.00 0.00 0.00 0.01 0.01 0.00 0.00 0.00 0.00 0.00 0.00 0.00 0.00 0.00
0.04 0.01 0.01 0.00 0.01 0.02 0.03 0.04 0.26 0.20 0.15 0.16 0.03 0.01 0.03 0.02 0.00 0.00 0.00 0.00 0.03 0.09 0.21 0.23 0.21 0.08 0.03 0.03 0.01 0.02 0.00 0.00 0.00 0.00 0.00 0.00 0.00 0.00 0.00 0.00 0.00 0.00 0.00 0.00 0.00 0.00 0.00